STARLINK-35448, 66465

Orbit data source: Space-Track

STARLINK-35448, 66465 is a payload satellite owned by SpaceX/Seattle (US) in LEO that was launched on Sat, 15 Nov 2025 UTC via an FALCON 9 launch vehicle from the Air Force Eastern Test Range (AFETR). Payload-class satellites include a variety of spacecraft equipped with specific instruments for various scientific and technological missions. These include communications satellites like Starlink; space stations such as the ISS; scientific satellites like the Hubble; Earth observation satellites from companies like Planet Labs, Umbra, and HawkEye 360; GPS; miniature CubeSats for education and research; and military/defense satellites.

Loading next visibility...
Identifier
66465, 2025-262K
Orbit
LEO
Country
Flag of USUS
Related business
Manufacturer
SpaceX/Seattle
Mission
Operational Commercial Communications
Bus & Motor
STARLINK V2MO, Unknown motor
Mass
575 kg wet, ~530 kg dry
Launch date (UTC)
2025-11-15 (7 months ago)
Launch vehicle
FALCON 9
Launch site
Air Force Eastern Test Range (AFETR)
Object type
Payload
Rocket body
Debris
Shape & HBR
Box + 2 Pan, 17.7 m
Radar Cross Section
36.964 m², Large (>1 m²)

Expand to show TLE details & history
Last TLE update: 17 hours ago

TLE from 17 hours ago
0 STARLINK-35448
1 66465U 25262K   26171.14864771  .00027586  00000-0  10078-2 0  9995
2 66465  43.0017  77.7569 0001253 283.1097  76.9615 15.27593604 34571
Epoch: 2026-06-20T03:34Z
TLE epoch observation values (Epoch: 2026-06-20T03:34:03.162Z)
Latitude
0.00001°
Longitude
115.87631°
Altitude
482.59 km
Speed
7.626 km/s
True Right ascension
05h 11m 01s
True Declination
0° 00' 00"
Sunlit
Object was in daylight at epoch
Visualization orbit readout
Latitude
Unknown
Longitude
Unknown
Altitude
Unknown
Speed
Unknown
Apparent Right ascension
Unknown
Apparent Declination
Unknown
Sunlit
N/A
Visualization observer readout
Local Sidereal Time
07:17:21
Azimuth
Unknown
Elevation
Unknown
Doppler factor
Unknown
Orbital elements
Apogee altitude
485.813 km
Perigee altitude
484.093 km
Semi-major axis
6,863.09 km
Eccentricity
0.00013
Inclination
43.0017°
RAAN
77.7569°
Arg. of periapsis
283.1097°
True anomaly
76.97549°
Mean anomaly
76.9615°
Eccentric anomaly
76.96849°
Mean motion
3.81736 °/min
Orbital period
94.31 mins
BSTAR
0.0010078
Loading maneuver chart data...
Computing Atmospheric mass density...
Loading historical data...
Loading historical data...
Loading historical data...
Loading historical data...
Loading historical data...
Loading historical data...
Loading historical data...

Documentation

Showing up to 5 results
|